Location: Holyhead Bay
(53.3667°N, 4.6667°W)
Time: 19:55:44
(UTC+00:00)

CZ-4 R/B - Pass Details

Date: 24 November 2020
Orbit: 581 x 588 km, 97.7° (Epoch: 17 January)

Event Time Altitude Azimuth Distance (km) Brightness Sun altitude
Rises 18:27:21 0° 165° (SSE) 2,806 7.9 -19.7°
Reaches altitude 10° 18:29:30 10° 167° (SSE) 1,910 7.0 -20.0°
Maximum altitude 18:33:39 84° 255° (WSW) 597 4.4 -20.6°
Drops below altitude 10° 18:37:49 10° 345° (NNW) 1,921 7.2 -21.3°
Sets 18:39:59 0° 346° (NNW) 2,825 8.1 -21.6°
